User: anonymous   Login
Location: Twentynine Palms Airport
(34.1316°N, 115.9458°W)
Time: 10:26:54
(UTC-07:00)
Language:

Oscar 19 - Orbit

View from above orbital plane
View from above orbital plane
View from above satellite
View from above satellite

Ground track
Ground track

The orbit data is extracted from the following two-line orbital elements,

1 20442U 90005G   14302.80463141  .00000217  00000-0  95537-4 0   953
2 20442 098.4892 237.9165 0013015 109.5853 250.6738 14.32613581293951
Epoch (UTC): 29 October 2014 19:18:40
Eccentricity: 0.0013015
inclination: 98.4892°
perigee height: 773 km
apogee height: 792 km
right ascension of ascending node: 237.9165°
argument of perigee: 109.5853°
revolutions per day: 14.32613581
mean anomaly at epoch: 250.6738°
orbit number at epoch: 29395

The dashed part of the orbit path shows where the satellite is in the earth's shadow,  

DLR